This is the latest recevied weather packets stored in our database for station/object WX4FUN-13. If no packets are shown the sender has not sent any weather packets the latest 1 day(s).
| Time | Temp. | Humidity | Pressure | Rain* | Wind** | Luminosity | Snow |
|---|---|---|---|---|---|---|---|
| 1778007242 | 27.78° C | 41% | 1007.1 hPa | 0 mm | 1.34 m/s, 252° | 493 W/m² | - |
| 1778006641 | 27.78° C | 41% | 1007.2 hPa | 0 mm | 1.79 m/s, 229° | 138 W/m² | - |
| 1778006043 | 27.78° C | 42% | 1007.4 hPa | 0 mm | 1.34 m/s, 264° | 794 W/m² | - |
| 1778005441 | 27.78° C | 43% | 1007.5 hPa | 0 mm | 1.34 m/s, 211° | 797 W/m² | - |
| 1778004842 | 28.33° C | 41% | 1007.5 hPa | 0 mm | 0.89 m/s, 191° | 825 W/m² | - |
| 1778004241 | 27.78° C | 42% | 1007.6 hPa | 0 mm | 1.34 m/s, 279° | 830 W/m² | - |
| 1778003639 | 27.22° C | 43% | 1007.8 hPa | 0 mm | 1.34 m/s, 220° | 853 W/m² | - |
| 1778003039 | 27.22° C | 44% | 1008 hPa | 0 mm | 1.34 m/s, 329° | 868 W/m² | - |
| 1778002439 | 27.22° C | 43% | 1008.1 hPa | 0 mm | 1.34 m/s, 232° | 872 W/m² | - |
| 1778001839 | 26.67° C | 45% | 1008.3 hPa | 0 mm | 1.34 m/s, 245° | 882 W/m² | - |
| 1778001239 | 26.11° C | 46% | 1008.4 hPa | 0 mm | 0.89 m/s, 314° | 889 W/m² | - |
| 1778000639 | 25.56° C | 47% | 1008.4 hPa | 0 mm | 1.34 m/s, 301° | 895 W/m² | - |
| 1778000038 | 25.56° C | 46% | 1008.6 hPa | 0 mm | 1.34 m/s, 235° | 899 W/m² | - |
| 1777999435 | 25° C | 48% | 1008.8 hPa | 0 mm | 1.34 m/s, 262° | 894 W/m² | - |
| 1777998835 | 24.44° C | 50% | 1009 hPa | 0 mm | 0.89 m/s, 219° | 874 W/m² | - |
| 1777998234 | 24.44° C | 50% | 1009.2 hPa | 0 mm | 0.89 m/s, 201° | 894 W/m² | - |
| 1777997634 | 23.33° C | 52% | 1009.4 hPa | 0 mm | 1.34 m/s, 237° | 893 W/m² | - |
| 1777997033 | 23.33° C | 54% | 1009.4 hPa | 0 mm | 0.89 m/s, 234° | 299 W/m² | - |
| 1777996435 | 22.78° C | 55% | 1009.6 hPa | 0 mm | 0.89 m/s, 239° | 119 W/m² | - |
| 1777995833 | 22.22° C | 56% | 1009.7 hPa | 0 mm | 0.89 m/s, 231° | 773 W/m² | - |
| 1777995233 | 22.22° C | 56% | 1010 hPa | 0 mm | 0.89 m/s, 230° | 839 W/m² | - |
| 1777994633 | 21.67° C | 58% | 1010.3 hPa | 0 mm | 0.89 m/s, 260° | 828 W/m² | - |
| 1777994033 | 21.11° C | 58% | 1010.3 hPa | 0 mm | 0.89 m/s, 269° | 803 W/m² | - |
| 1777993429 | 21.11° C | 60% | 1010.4 hPa | 0 mm | 0.89 m/s, 227° | 789 W/m² | - |
| 1777992830 | 20° C | 61% | 1010.5 hPa | 0 mm | 0.45 m/s, 223° | 780 W/m² | - |
* Rain latest hour (hover to see other rain measurements)
** Current wind speed in m/s (hover to see current wind gust speed)